Location: Unspecified
(51.0950°N, 12.9690°E)
Time: 21:09:51
(UTC+00:00)

ATLAS 3B R/B - Pass Details

Date: 28 October 2021
Orbit: 989 x 1206 km, 63.8° (Epoch: 25 November)

Event Time Altitude Azimuth Distance (km) Brightness Sun altitude
Rises 20:08:15 0° 309° (NW) 3,864 6.5 -39.9°
Reaches altitude 10° 20:11:03 10° 317° (NW) 2,940 5.6 -40.3°
Enters shadow 20:15:15 32° 346° (NNW) 1,810 4.1 -40.8°
